"Period start","avg(HW err(1)/warn(2) (#))","avg(Visibility (m))","avg(Weather code (#))","avg(Precip intensity (mm/h))","min(HW err(1)/warn(2) (#))","max(HW err(1)/warn(2) (#))","std(HW err(1)/warn(2) (#))","med(HW err(1)/warn(2) (#))","min(Visibility (m))","max(Visibility (m))","std(Visibility (m))","med(Visibility (m))","min(Weather code (#))","max(Weather code (#))","std(Weather code (#))","med(Weather code (#))","min(Precip intensity (mm/h))","max(Precip intensity (mm/h))","std(Precip intensity (mm/h))","med(Precip intensity (mm/h))"
2014-06-19 00:00:00,0,47731,0,0.00,0,0,0,0,37524,50000,4565,50000,0,0,0,0,0.00,0.00,0.00,0.00
2014-06-19 00:10:00,0,43854,0,0.00,0,0,0,0,34501,50000,4823,43986,0,0,0,0,0.00,0.00,0.00,0.00
2014-06-19 00:20:00,0,42932,0,0.00,0,0,0,0,28425,50000,8306,47348,0,0,0,0,0.00,0.00,0.00,0.00
2014-06-19 00:30:00,0,42398,0,0.00,0,0,0,0,34280,50000,6168,40470,0,0,0,0,0.00,0.00,0.00,0.00
2014-06-19 00:40:00,0,49092,0,0.00,0,0,0,0,43860,50000,1952,50000,0,0,0,0,0.00,0.00,0.00,0.00
2014-06-19 00:50:00,0,45989,0,0.00,0,0,0,0,40576,50000,3577,45372,0,0,0,0,0.00,0.00,0.00,0.00
2014-06-19 01:00:00,0,45239,0,0.00,0,0,0,0,35298,50000,4184,46012,0,0,0,0,0.00,0.00,0.00,0.00
2014-06-19 01:10:00,1,42641,0,0.00,0,2,1,0,31436,50000,6724,44645,0,0,0,0,0.00,0.00,0.00,0.00
2014-06-19 01:20:00,0,45504,0,0.00,0,0,0,0,33730,50000,5292,47230,0,0,0,0,0.00,0.00,0.00,0.00
2014-06-19 01:30:00,0,45374,0,0.00,0,2,1,0,33619,50000,5506,48069,0,0,0,0,0.00,0.00,0.00,0.00
2014-06-19 01:40:00,0,49295,0,0.00,0,0,0,0,42947,50000,2116,50000,0,0,0,0,0.00,0.00,0.00,0.00
2014-06-19 01:50:00,0,49383,0,0.00,0,0,0,0,45932,50000,1310,50000,0,0,0,0,0.00,0.00,0.00,0.00
2014-06-19 02:00:00,0,47290,0,0.00,0,0,0,0,38917,50000,3948,49758,0,0,0,0,0.00,0.00,0.00,0.00
2014-06-19 02:10:00,0,45068,0,0.00,0,0,0,0,38761,50000,3592,45476,0,0,0,0,0.00,0.00,0.00,0.00
2014-06-19 02:20:00,0,49156,0,0.00,0,0,0,0,46848,50000,1199,49906,0,0,0,0,0.00,0.00,0.00,0.00
2014-06-19 02:30:00,1,45787,0,0.00,0,2,1,0,33848,50000,5033,47064,0,0,0,0,0.00,0.00,0.00,0.00
2014-06-19 02:40:00,0,46592,0,0.00,0,0,0,0,35644,50000,4280,47832,0,0,0,0,0.00,0.00,0.00,0.00
2014-06-19 02:50:00,0,46922,0,0.00,0,0,0,0,39368,50000,3745,48515,0,0,0,0,0.00,0.00,0.00,0.00
2014-06-19 03:00:00,0,45768,0,0.00,0,0,0,0,37029,50000,4461,47608,0,0,0,0,0.00,0.00,0.00,0.00
2014-06-19 03:10:00,0,49367,0,0.00,0,0,0,0,47556,50000,937,50000,0,0,0,0,0.00,0.00,0.00,0.00
2014-06-19 03:20:00,1,50000,0,0.00,0,2,1,0,50000,50000,0,50000,0,0,0,0,0.00,0.00,0.00,0.00
2014-06-19 03:30:00,2,49592,0,0.00,2,2,0,2,45915,50000,1226,50000,0,0,0,0,0.00,0.00,0.00,0.00
2014-06-19 03:40:00,1,50000,0,0.00,0,2,1,2,50000,50000,0,50000,0,0,0,0,0.00,0.00,0.00,0.00
2014-06-19 03:50:00,0,44979,37,1.05,0,0,0,0,37759,50000,4664,45358,0,61,30,61,0.00,3.25,1.16,0.53
2014-06-19 04:00:00,0,27824,61,8.97,0,0,0,0,18826,35515,5478,28445,61,62,0,61,2.65,23.45,6.47,5.85
2014-06-19 04:10:00,0,41896,61,4.83,0,0,0,0,29257,50000,8242,44810,61,62,0,61,0.20,15.10,4.30,4.12
2014-06-19 04:20:00,0,26722,61,7.07,0,0,0,0,19065,36579,5847,28214,61,62,0,61,1.45,15.60,4.76,6.67
2014-06-19 04:30:00,0,24806,61,8.55,0,0,0,0,16735,45502,7915,24060,61,62,0,61,4.30,13.85,2.99,8.68
2014-06-19 04:40:00,0,31796,61,4.85,0,0,0,0,23689,45263,5954,31629,61,61,0,61,1.10,9.45,2.48,4.07
2014-06-19 04:50:00,0,47642,42,0.26,0,0,0,0,38820,50000,3976,49670,0,61,27,61,0.00,1.20,0.44,0.03
2014-06-19 05:00:00,0,46666,54,0.47,0,0,0,0,30751,50000,6768,50000,0,61,18,61,0.00,1.55,0.55,0.12
2014-06-19 05:10:00,0,50000,56,0.16,0,0,0,0,50000,50000,0,50000,51,61,5,56,0.00,0.60,0.18,0.10
2014-06-19 05:20:00,0,48678,48,1.22,0,0,0,0,45166,50000,1899,50000,0,61,24,61,0.00,3.85,1.28,0.90
2014-06-19 05:30:00,0,49401,0,0.00,0,0,0,0,45995,50000,1306,50000,0,0,0,0,0.00,0.00,0.00,0.00
2014-06-19 05:40:00,0,49704,0,0.00,0,0,0,0,48355,50000,511,50000,0,0,0,0,0.00,0.00,0.00,0.00
2014-06-19 05:50:00,0,46056,0,0.00,0,0,0,0,33991,50000,6120,50000,0,0,0,0,0.00,0.00,0.00,0.00
2014-06-19 06:00:00,0,49906,24,0.03,0,0,0,0,49346,50000,205,50000,0,61,30,0,0.00,0.20,0.06,0.00
2014-06-19 06:10:00,0,47258,0,0.00,0,0,0,0,36959,50000,4646,49823,0,0,0,0,0.00,0.00,0.00,0.00
2014-06-19 06:20:00,0,49077,0,0.00,0,0,0,0,46424,50000,1198,49887,0,0,0,0,0.00,0.00,0.00,0.00
2014-06-19 06:30:00,0,49977,0,0.00,0,0,0,0,49766,50000,70,50000,0,0,0,0,0.00,0.00,0.00,0.00
2014-06-19 06:40:00,0,41934,24,0.58,0,0,0,0,18843,50000,10544,47320,0,61,30,0,0.00,2.85,0.95,0.00
2014-06-19 06:50:00,0,36162,55,2.76,0,0,0,0,21844,50000,8289,33345,0,62,18,61,0.00,13.95,4.21,0.70
2014-06-19 07:00:00,0,48901,0,0.00,0,0,0,0,41990,50000,2380,50000,0,0,0,0,0.00,0.00,0.00,0.00
2014-06-19 07:10:00,0,48934,0,0.00,0,2,1,0,41657,50000,2522,50000,0,0,0,0,0.00,0.00,0.00,0.00
2014-06-19 07:20:00,2,47131,0,0.00,2,2,0,2,38852,50000,3949,50000,0,0,0,0,0.00,0.00,0.00,0.00
2014-06-19 07:30:00,2,48697,0,0.00,2,2,0,2,41507,50000,2635,50000,0,0,0,0,0.00,0.00,0.00,0.00
2014-06-19 07:40:00,2,49455,0,0.00,2,2,0,2,44931,50000,1512,50000,0,0,0,0,0.00,0.00,0.00,0.00
2014-06-19 07:50:00,2,48396,0,0.00,2,2,0,2,45339,50000,1811,49356,0,0,0,0,0.00,0.00,0.00,0.00
2014-06-19 08:00:00,0,47433,0,0.00,0,0,0,0,40585,50000,2670,47785,0,0,0,0,0.00,0.00,0.00,0.00
2014-06-19 08:10:00,0,48512,0,0.00,0,0,0,0,43424,50000,2388,49899,0,0,0,0,0.00,0.00,0.00,0.00
2014-06-19 08:20:00,1,48700,0,0.00,0,2,1,0,45054,50000,1866,50000,0,0,0,0,0.00,0.00,0.00,0.00
2014-06-19 08:30:00,0,50000,0,0.00,0,2,1,0,50000,50000,0,50000,0,0,0,0,0.00,0.00,0.00,0.00
2014-06-19 08:40:00,1,50000,0,0.00,0,2,1,0,50000,50000,0,50000,0,0,0,0,0.00,0.00,0.00,0.00
2014-06-19 08:50:00,0,49826,0,0.00,0,0,0,0,48888,50000,365,50000,0,0,0,0,0.00,0.00,0.00,0.00
2014-06-19 09:00:00,0,46584,0,0.00,0,0,0,0,39908,50000,3526,48375,0,0,0,0,0.00,0.00,0.00,0.00
2014-06-19 09:10:00,0,50000,0,0.00,0,0,0,0,49999,50000,0,50000,0,0,0,0,0.00,0.00,0.00,0.00
2014-06-19 09:20:00,0,48657,0,0.00,0,0,0,0,39997,50000,2978,50000,0,0,0,0,0.00,0.00,0.00,0.00
2014-06-19 09:30:00,0,47168,0,0.00,0,0,0,0,39443,50000,3687,49194,0,0,0,0,0.00,0.00,0.00,0.00
2014-06-19 09:40:00,0,46290,0,0.00,0,0,0,0,38049,50000,4083,46988,0,0,0,0,0.00,0.00,0.00,0.00
2014-06-19 09:50:00,0,45238,0,0.00,0,0,0,0,38932,50000,4229,45065,0,0,0,0,0.00,0.00,0.00,0.00
2014-06-19 10:00:00,0,49219,0,0.00,0,0,0,0,47641,50000,847,49570,0,0,0,0,0.00,0.00,0.00,0.00
2014-06-19 10:10:00,0,44678,0,0.00,0,0,0,0,39488,50000,3617,44871,0,0,0,0,0.00,0.00,0.00,0.00
2014-06-19 10:20:00,0,47340,0,0.00,0,0,0,0,35703,50000,4491,50000,0,0,0,0,0.00,0.00,0.00,0.00
2014-06-19 10:30:00,0,48187,0,0.00,0,0,0,0,42708,50000,2626,49470,0,0,0,0,0.00,0.00,0.00,0.00
2014-06-19 10:40:00,0,44224,0,0.00,0,0,0,0,34218,50000,4696,45236,0,0,0,0,0.00,0.00,0.00,0.00
2014-06-19 10:50:00,0,42674,0,0.00,0,0,0,0,28812,50000,7952,46022,0,0,0,0,0.00,0.00,0.00,0.00
2014-06-19 11:00:00,0,38892,0,0.00,0,2,1,0,25356,49303,7406,38062,0,0,0,0,0.00,0.00,0.00,0.00
2014-06-19 11:10:00,2,39154,0,0.00,2,2,0,2,19010,50000,9204,41790,0,0,0,0,0.00,0.00,0.00,0.00
2014-06-19 11:20:00,2,37902,0,0.00,2,2,0,2,27926,50000,6718,36143,0,0,0,0,0.00,0.00,0.00,0.00
2014-06-19 11:30:00,2,42482,0,0.00,2,2,0,2,28768,50000,7267,42856,0,0,0,0,0.00,0.00,0.00,0.00
2014-06-19 11:40:00,2,20654,0,0.00,1,2,0,2,12856,27389,5231,20188,0,0,0,0,0.00,0.00,0.00,0.00
2014-06-19 11:50:00,2,35663,4,0.00,1,2,0,2,19595,50000,10509,35468,4,4,0,4,0.00,0.00,0.00,0.00
2014-06-19 12:00:00,2,33704,1,0.00,2,2,0,2,21869,48123,6992,32778,0,4,2,0,0.00,0.00,0.00,0.00
2014-06-19 12:10:00,2,45775,0,0.00,2,2,0,2,31907,50000,5768,48183,0,0,0,0,0.00,0.00,0.00,0.00
2014-06-19 12:20:00,2,43038,0,0.00,2,2,0,2,36072,50000,4491,42592,0,0,0,0,0.00,0.00,0.00,0.00
2014-06-19 12:30:00,2,48369,0,0.00,2,2,0,2,45167,50000,1679,48756,0,0,0,0,0.00,0.00,0.00,0.00
2014-06-19 12:40:00,2,48845,0,0.00,2,2,0,2,45082,50000,1841,50000,0,0,0,0,0.00,0.00,0.00,0.00
2014-06-19 12:50:00,2,48812,0,0.00,2,2,0,2,43340,50000,2085,50000,0,0,0,0,0.00,0.00,0.00,0.00
2014-06-19 13:00:00,2,49927,0,0.00,2,2,0,2,49268,50000,220,50000,0,0,0,0,0.00,0.00,0.00,0.00
2014-06-19 13:10:00,1,49425,0,0.00,0,2,1,2,46911,50000,1146,50000,0,0,0,0,0.00,0.00,0.00,0.00
2014-06-19 13:20:00,0,49789,0,0.00,0,0,0,0,48560,50000,450,50000,0,0,0,0,0.00,0.00,0.00,0.00
2014-06-19 13:30:00,0,49359,0,0.00,0,0,0,0,48138,50000,801,50000,0,0,0,0,0.00,0.00,0.00,0.00
2014-06-19 13:40:00,0,49428,0,0.00,0,0,0,0,44982,50000,1493,50000,0,0,0,0,0.00,0.00,0.00,0.00
2014-06-19 13:50:00,0,49405,0,0.00,0,0,0,0,45748,50000,1301,50000,0,0,0,0,0.00,0.00,0.00,0.00
2014-06-19 14:00:00,0,49990,0,0.00,0,0,0,0,49899,50000,30,50000,0,0,0,0,0.00,0.00,0.00,0.00
2014-06-19 14:10:00,0,49615,0,0.00,0,0,0,0,47529,50000,808,50000,0,0,0,0,0.00,0.00,0.00,0.00
2014-06-19 14:20:00,0,50000,0,0.00,0,0,0,0,50000,50000,0,50000,0,0,0,0,0.00,0.00,0.00,0.00
2014-06-19 14:30:00,0,49957,0,0.00,0,0,0,0,49573,50000,128,50000,0,0,0,0,0.00,0.00,0.00,0.00
2014-06-19 14:40:00,0,49917,0,0.00,0,0,0,0,49199,50000,240,50000,0,0,0,0,0.00,0.00,0.00,0.00
2014-06-19 14:50:00,0,49927,0,0.00,0,0,0,0,49267,50000,220,50000,0,0,0,0,0.00,0.00,0.00,0.00
2014-06-19 15:00:00,0,49966,0,0.00,0,0,0,0,49658,50000,103,50000,0,0,0,0,0.00,0.00,0.00,0.00
2014-06-19 15:10:00,0,49364,0,0.00,0,0,0,0,47681,50000,975,50000,0,0,0,0,0.00,0.00,0.00,0.00
2014-06-19 15:20:00,0,49893,0,0.00,0,0,0,0,48933,50000,320,50000,0,0,0,0,0.00,0.00,0.00,0.00
2014-06-19 15:30:00,0,49527,0,0.00,0,0,0,0,47240,50000,962,50000,0,0,0,0,0.00,0.00,0.00,0.00
2014-06-19 15:40:00,0,49756,0,0.00,0,0,0,0,47558,50000,733,50000,0,0,0,0,0.00,0.00,0.00,0.00
2014-06-19 15:50:00,0,49874,0,0.00,0,0,0,0,48898,50000,329,50000,0,0,0,0,0.00,0.00,0.00,0.00
2014-06-19 16:00:00,0,49190,0,0.00,0,0,0,0,44000,50000,1840,50000,0,0,0,0,0.00,0.00,0.00,0.00
2014-06-19 16:10:00,0,49930,0,0.00,0,0,0,0,49301,50000,210,50000,0,0,0,0,0.00,0.00,0.00,0.00
2014-06-19 16:20:00,0,50000,0,0.00,0,0,0,0,50000,50000,0,50000,0,0,0,0,0.00,0.00,0.00,0.00
2014-06-19 16:30:00,0,49650,0,0.00,0,0,0,0,46999,50000,896,50000,0,0,0,0,0.00,0.00,0.00,0.00
2014-06-19 16:40:00,0,49735,0,0.00,0,0,0,0,47354,50000,794,50000,0,0,0,0,0.00,0.00,0.00,0.00
2014-06-19 16:50:00,0,49618,0,0.00,0,2,1,0,47061,50000,892,50000,0,0,0,0,0.00,0.00,0.00,0.00
2014-06-19 17:00:00,2,49969,0,0.00,0,2,1,2,49690,50000,93,50000,0,0,0,0,0.00,0.00,0.00,0.00
2014-06-19 17:10:00,2,50000,0,0.00,2,2,0,2,50000,50000,0,50000,0,0,0,0,0.00,0.00,0.00,0.00
2014-06-19 17:20:00,2,49923,0,0.00,2,2,0,2,49234,50000,230,50000,0,0,0,0,0.00,0.00,0.00,0.00
2014-06-19 17:30:00,2,50000,0,0.00,2,2,0,2,50000,50000,0,50000,0,0,0,0,0.00,0.00,0.00,0.00
2014-06-19 17:40:00,2,50000,0,0.00,2,2,0,2,50000,50000,0,50000,0,0,0,0,0.00,0.00,0.00,0.00
2014-06-19 17:50:00,2,49975,0,0.00,2,2,0,2,49750,50000,75,50000,0,0,0,0,0.00,0.00,0.00,0.00
2014-06-19 18:00:00,2,49995,0,0.00,2,2,0,2,49954,50000,14,50000,0,0,0,0,0.00,0.00,0.00,0.00
2014-06-19 18:10:00,2,49152,0,0.00,2,2,0,2,44972,50000,1733,50000,0,0,0,0,0.00,0.00,0.00,0.00
2014-06-19 18:20:00,2,50000,0,0.00,2,2,0,2,50000,50000,0,50000,0,0,0,0,0.00,0.00,0.00,0.00
2014-06-19 18:30:00,2,49615,0,0.00,2,2,0,2,47438,50000,821,50000,0,0,0,0,0.00,0.00,0.00,0.00
2014-06-19 18:40:00,0,50000,0,0.00,0,2,1,0,50000,50000,0,50000,0,0,0,0,0.00,0.00,0.00,0.00
2014-06-19 18:50:00,0,50000,0,0.00,0,0,0,0,50000,50000,0,50000,0,0,0,0,0.00,0.00,0.00,0.00
2014-06-19 19:00:00,0,49975,0,0.00,0,0,0,0,49750,50000,75,50000,0,0,0,0,0.00,0.00,0.00,0.00
2014-06-19 19:10:00,0,49322,0,0.00,0,0,0,0,44450,50000,1665,50000,0,0,0,0,0.00,0.00,0.00,0.00
2014-06-19 19:20:00,0,49826,0,0.00,0,0,0,0,48265,50000,520,50000,0,0,0,0,0.00,0.00,0.00,0.00
2014-06-19 19:30:00,0,50000,0,0.00,0,0,0,0,50000,50000,0,50000,0,0,0,0,0.00,0.00,0.00,0.00
2014-06-19 19:40:00,1,49991,0,0.00,0,2,1,2,49912,50000,26,50000,0,0,0,0,0.00,0.00,0.00,0.00
2014-06-19 19:50:00,2,49402,0,0.00,2,2,0,2,46812,50000,1199,50000,0,0,0,0,0.00,0.00,0.00,0.00
2014-06-19 20:00:00,2,49573,0,0.00,0,2,1,2,47315,50000,888,50000,0,0,0,0,0.00,0.00,0.00,0.00
2014-06-19 20:10:00,1,47347,0,0.00,0,2,1,2,39940,50000,3420,49418,0,0,0,0,0.00,0.00,0.00,0.00
2014-06-19 20:20:00,2,49331,0,0.00,0,2,1,2,45962,50000,1255,50000,0,0,0,0,0.00,0.00,0.00,0.00
2014-06-19 20:30:00,2,49609,0,0.00,0,2,1,2,47548,50000,732,50000,0,0,0,0,0.00,0.00,0.00,0.00
2014-06-19 20:40:00,0,49850,0,0.00,0,2,1,0,48495,50000,452,50000,0,0,0,0,0.00,0.00,0.00,0.00
2014-06-19 20:50:00,1,49455,0,0.00,0,2,1,2,44547,50000,1636,50000,0,0,0,0,0.00,0.00,0.00,0.00
2014-06-19 21:00:00,0,49640,0,0.00,0,0,0,0,47994,50000,726,50000,0,0,0,0,0.00,0.00,0.00,0.00
2014-06-19 21:10:00,0,49866,0,0.00,0,0,0,0,48656,50000,403,50000,0,0,0,0,0.00,0.00,0.00,0.00
2014-06-19 21:20:00,0,49740,0,0.00,0,0,0,0,48666,50000,519,50000,0,0,0,0,0.00,0.00,0.00,0.00
2014-06-19 21:30:00,0,49758,0,0.00,0,0,0,0,48385,50000,500,50000,0,0,0,0,0.00,0.00,0.00,0.00
2014-06-19 21:40:00,0,50000,0,0.00,0,0,0,0,50000,50000,0,50000,0,0,0,0,0.00,0.00,0.00,0.00
2014-06-19 21:50:00,0,50000,0,0.00,0,0,0,0,50000,50000,0,50000,0,0,0,0,0.00,0.00,0.00,0.00
2014-06-19 22:00:00,1,49848,0,0.00,0,2,1,2,48483,50000,455,50000,0,0,0,0,0.00,0.00,0.00,0.00
2014-06-19 22:10:00,2,49956,0,0.00,0,2,1,2,49560,50000,132,50000,0,0,0,0,0.00,0.00,0.00,0.00
2014-06-19 22:20:00,2,49244,0,0.00,0,2,1,2,45246,50000,1574,50000,0,0,0,0,0.00,0.00,0.00,0.00
2014-06-19 22:30:00,1,49920,0,0.00,0,2,1,0,49196,50000,241,50000,0,0,0,0,0.00,0.00,0.00,0.00
2014-06-19 22:40:00,2,50000,0,0.00,2,2,0,2,50000,50000,0,50000,0,0,0,0,0.00,0.00,0.00,0.00
2014-06-19 22:50:00,2,49542,0,0.00,2,2,0,2,46789,50000,961,50000,0,0,0,0,0.00,0.00,0.00,0.00
2014-06-19 23:00:00,2,50000,0,0.00,2,2,0,2,50000,50000,0,50000,0,0,0,0,0.00,0.00,0.00,0.00
2014-06-19 23:10:00,2,49360,0,0.00,2,2,0,2,43598,50000,1921,50000,0,0,0,0,0.00,0.00,0.00,0.00
2014-06-19 23:20:00,2,49966,0,0.00,2,2,0,2,49661,50000,102,50000,0,0,0,0,0.00,0.00,0.00,0.00
2014-06-19 23:30:00,2,49659,0,0.00,2,2,0,2,48261,50000,683,50000,0,0,0,0,0.00,0.00,0.00,0.00
2014-06-19 23:40:00,2,50000,0,0.00,0,2,1,2,50000,50000,0,50000,0,0,0,0,0.00,0.00,0.00,0.00
2014-06-19 23:50:00,2,49761,0,0.00,2,2,0,2,48727,50000,480,50000,0,0,0,0,0.00,0.00,0.00,0.00
